Regional Weather Roundup
Issued by NWS

Home | Current Version | Previous Version | Graphics & Text | Print | Product List | Glossary On
Versions: 1 2 3 4 5 6 7 8 9 10 11 12 13 14 15 16 17 18 19 20 21 22 23 24 25 26 27 28 29 30 31 32 33 34 35 36 37 38 39 40 41 42 43 44 45 46 47 48 49 50
000
ASUS43 KFSD 011302
RWRSD

WEATHER ROUNDUP FOR SOUTH DAKOTA
NATIONAL WEATHER SERVICE SIOUX FALLS SD
800 AM CDT TUE SEP 01 2015

NOTE: "FAIR" INDICATES FEW OR NO CLOUDS BELOW 12,000 FEET WITH NO
SIGNIFICANT WEATHER AND/OR OBSTRUCTIONS TO VISIBILITY.


SDZ001>005-009-010-012>017-011400-
NORTHWEST AND NORTH CENTRAL SOUTH DAKOTA

CITY           SKY/WX    TMP DP  RH WIND       PRES   REMARKS
BUFFALO          N/A     56  54  93 CALM      29.82F
FAITH            N/A     59  56  89 E6        29.88S
MOBRIDGE       CLEAR     61  60  97 E6        29.86S
$$

SDZ012>016-024>037-041>051-057-063-072>074-011400-
SOUTHWEST AND SOUTH CENTRAL SOUTH DAKOTA

CITY           SKY/WX    TMP DP  RH WIND       PRES   REMARKS
RAPID CTY ARPT LGT RAIN  53  52  96 N3        29.88S
PIERRE         PTCLDY    59  59 100 NE7       29.85S
CUSTER         CLEAR     54  42  64 SW5       30.04S
ELLSWORTH AFB  CLEAR     55  55 100 W2        29.87S
PHILIP         CLEAR     59  58  96 E7        29.86S
PINE RIDGE     CLEAR     55  50  83 NE3       29.93R
WINNER         PTSUNNY   67  63  87 SE7       29.90R
$$

SDZ004>011-016>023-039-040-011400-
NORTHEAST SOUTH DAKOTA

CITY           SKY/WX    TMP DP  RH WIND       PRES   REMARKS
ABERDEEN       SUNNY     60  59  96 E6        29.88S
WATERTOWN      CLOUDY    67  63  87 E6        29.91R
BROOKINGS      CLOUDY    68  64  88 E7        29.92S
$$

SDZ017-020-022-023-036>040-048>070-011400-
SOUTHEAST SOUTH DAKOTA

CITY           SKY/WX    TMP DP  RH WIND       PRES   REMARKS
SIOUX FALLS    CLOUDY    69  66  90 SE5       29.89S FOG
HURON          CLOUDY    63  62  97 N3        29.86S FOG
CHAMBERLAIN    MOCLDY    63  62  96 CALM      29.87S
MITCHELL       CLOUDY    66  65  96 CALM      29.88R
YANKTON        CLOUDY    66  64  94 E5        29.87R
$$

ABBREVIATIONS USED IN REMARKS
   TC - TEMPERATURE IN CELSIUS
  WCI - WIND CHILL INDEX
   HX - HEAT INDEX
  VSB - VISIBILITY



USA.gov is the U.S. government's official web portal to all federal, state and local government web resources and services.